Regional Weather Roundup
Issued by NWS

Home | Current Version | Previous Version | Text Only | Print | Product List | Glossary Off
Versions: 1 2 3 4 5 6 7 8 9 10 11 12 13 14 15 16 17 18 19 20 21 22 23 24 25 26 27 28 29 30 31 32 33 34 35 36 37 38 39 40 41 42 43 44 45 46 47 48 49 50

000
ASUS45 KABQ 280601
RWRNM
WEATHER ROUNDUP FOR NEW MEXICO
NATIONAL WEATHER SERVICE ALBUQUERQUE NM
1200 AM MDT SAT MAR 28 2015

NOTE: "FAIR" MEANS FEW OR NO CLOUDS BELOW 12,000 FEET AGL WITH NO
       SIGNIFICANT WEATHER OR OBSTRUCTIONS TO VISION.

      THIS PRODUCT IS RELEASED AS TWO VERSIONS.  ONE VERSION NEAR
      THE TOP OF THE HOUR CONTAINING PRELIMINARY DATA FROM ALBUQUERQUE
      AND OTHER STATIONS.  A FINAL VERSION WITH ADDITIONAL DATA IS
      ISSUED ABOUT 10 MINUTES AFTER THE HOUR.

NMZ501-503-504-510>518-280700-
NORTHWEST PLATEAU/NORTHCENTRAL MOUNTAINS

CITY           SKY/WX    TMP DP  RH WIND       PRES   REMARKS
FARMINGTON     CLEAR     48  21  34 N6        30.21S
6HR MIN TEMP:  48; 6HR MAX TEMP:  71;

SANTA FE       CLEAR     41  20  43 NW7       30.23R
6HR MIN TEMP:  41; 6HR MAX TEMP:  71;

TAOS           MOCLDY    43  23  45 E5        30.27S
ANGEL FIRE     MOCLDY    31  27  86 CALM      30.33S

$$
NMZ402-403-502-505>509-280700-
WESTCENTRAL MOUNTAINS/SOUTHWEST MOUNTAINS

CITY           SKY/WX    TMP DP  RH WIND       PRES   REMARKS
GALLUP         CLEAR     40  10  29 CALM      30.29S
6HR MIN TEMP:  38; 6HR MAX TEMP:  72;

GRANTS         CLEAR     39  17  41 NW8       30.30S WCI  33

$$
NMZ407-409-411-412-280700-
SOUTHERN DESERTS

CITY           SKY/WX    TMP DP  RH WIND       PRES   REMARKS
DEMING         CLEAR     56  15  20 SW9       30.17S
6HR MIN TEMP:  56; 6HR MAX TEMP:  80;

ALAMOGORDO     PTCLDY    54  18  24 S7        30.15S
T OR C         CLEAR     57  19  22 W12       30.17R
6HR MIN TEMP:  54; 6HR MAX TEMP:  76;


$$
NMZ519>523-280700-
CENTRAL VALLEYS/CENTRAL HIGHLANDS

CITY           SKY/WX    TMP DP  RH WIND       PRES   REMARKS
ALBUQUERQUE    CLEAR     61  16  17 SW6       30.20R
6HR MIN TEMP:  61; 6HR MAX TEMP:  76;

DOUBLE EAGLE   CLEAR     53  17  24 NW14      30.23R
CLINES CORNERS CLEAR     48  14  25 NW9       30.25R
6HR MIN TEMP:  47; 6HR MAX TEMP:  67;

BELEN          FAIR      56  13  19 N6        30.20S
6HR MIN TEMP:  53; 6HR MAX TEMP:  77;

SOCORRO        FAIR      58  19  22 E5        30.18R
6HR MIN TEMP:  55; 6HR MAX TEMP:  77;


$$
NMZ524>526-539-540-280700-
SOUTHCENTRAL MOUNTAINS

CITY           SKY/WX    TMP DP  RH WIND       PRES   REMARKS
RUIDOSO        NOT AVBL

$$
NMZ527>531-280700-
NORTHEAST HIGHLANDS/NORTHEAST PLAINS

CITY           SKY/WX    TMP DP  RH WIND       PRES   REMARKS
LAS VEGAS      CLEAR     54  19  25 CALM      30.22R
6HR MIN TEMP:  47; 6HR MAX TEMP:  69;

RATON          CLEAR     46  24  42 N10       30.20S
6HR MIN TEMP:  45; 6HR MAX TEMP:  70;

CLAYTON        MOCLDY    53  29  39 SW6       30.14F
6HR MIN TEMP:  50; 6HR MAX TEMP:  68;


$$
NMZ532>537-280700-
EASTCENTRAL PLAINS

CITY           SKY/WX    TMP DP  RH WIND       PRES   REMARKS
TUCUMCARI      CLEAR     49  29  46 NE3       30.08R
6HR MIN TEMP:  49; 6HR MAX TEMP:  76;

CANNON AFB     NOT AVBL
CLOVIS AIRPORT CLEAR     48  30  49 S7        30.11S

$$
NMZ028-029-538-280700-
SOUTHEAST PLAINS

CITY           SKY/WX    TMP DP  RH WIND       PRES   REMARKS
ROSWELL        CLEAR     52  31  44 W7        30.09S
6HR MIN TEMP:  50; 6HR MAX TEMP:  79;

ARTESIA        CLEAR     54  27  35 CALM      30.10S
CARLSBAD       CLEAR     58  28  32 CALM      30.08S
6HR MIN TEMP:  53; 6HR MAX TEMP:  80;

HOBBS          CLEAR     54  27  35 S6        30.13S


$$



USA.gov is the U.S. government's official web portal to all federal, state and local government web resources and services.